EN

Hourly Weather Ovsyankino

Today, 5 March, Friday

Time Temperature Precipitation Wind Pressure Humidity
00:00 -6°C° 0 mm 2 mps 735 mmHg 90%
01:00 -7°C° 0 mm 3 mps 735 mmHg 89%
02:00 -6°C° 0 mm 2 mps 736 mmHg 94%
03:00 -7°C° 0 mm 2 mps 736 mmHg 94%
04:00 -8°C° 0 mm 2 mps 736 mmHg 95%
05:00 -8°C° 0 mm 2 mps 736 mmHg 95%
06:00 -8°C° 0 mm 2 mps 736 mmHg 94%
07:00 -8°C° 0 mm 2 mps 737 mmHg 92%
08:00 -7°C° 0 mm 2 mps 737 mmHg 90%
09:00 -6°C° 0 mm 2 mps 737 mmHg 83%
10:00 -5°C° 0 mm 2 mps 737 mmHg 75%
11:00 -4°C° 0 mm 2 mps 738 mmHg 68%
12:00 -2°C° 0.1 mm 1 mps 738 mmHg 68%
13:00 -1°C° 0.1 mm 1 mps 738 mmHg 68%
14:00 -1°C° 0.1 mm 1 mps 738 mmHg 68%
15:00 -2°C° 0.2 mm 1 mps 739 mmHg 71%
16:00 -2°C° 0.2 mm 1 mps 739 mmHg 74%
17:00 -5°C° 0.2 mm 2 mps 739 mmHg 77%
18:00 -5°C° 0 mm 2 mps 740 mmHg 79%
19:00 -6°C° 0 mm 2 mps 740 mmHg 81%
20:00 -7°C° 0 mm 2 mps 741 mmHg 82%
21:00 -8°C° 0 mm 2 mps 741 mmHg 85%
22:00 -8°C° 0 mm 2 mps 742 mmHg 87%
23:00 -8°C° 0 mm 1 mps 742 mmHg 90%

Tomorrow, 6 March, Saturday

Time Temperature Precipitation Wind Pressure Humidity
00:00 -8°C° 0 mm 1 mps 742 mmHg 90%
01:00 -8°C° 0 mm 1 mps 743 mmHg 91%
02:00 -9°C° 0 mm 1 mps 743 mmHg 92%
03:00 -9°C° 0 mm 1 mps 743 mmHg 92%
04:00 -9°C° 0 mm 1 mps 743 mmHg 93%
05:00 -9°C° 0 mm 1 mps 743 mmHg 94%
06:00 -10°C° 0 mm 2 mps 744 mmHg 92%
07:00 -9°C° 0 mm 2 mps 744 mmHg 90%
08:00 -9°C° 0 mm 2 mps 744 mmHg 88%
09:00 -9°C° 0 mm 3 mps 744 mmHg 82%
10:00 -8°C° 0 mm 3 mps 744 mmHg 76%
11:00 -7°C° 0 mm 3 mps 744 mmHg 70%
12:00 -6°C° 0 mm 3 mps 744 mmHg 67%
13:00 -6°C° 0 mm 3 mps 743 mmHg 64%
14:00 -6°C° 0 mm 3 mps 743 mmHg 61%
15:00 -6°C° 0 mm 3 mps 743 mmHg 65%
16:00 -7°C° 0 mm 3 mps 742 mmHg 69%
17:00 -6°C° 0 mm 2 mps 742 mmHg 73%
18:00 -7°C° 0 mm 3 mps 741 mmHg 73%
19:00 -7°C° 0 mm 3 mps 741 mmHg 72%
20:00 -8°C° 0 mm 4 mps 740 mmHg 72%
21:00 -8°C° 0 mm 5 mps 739 mmHg 73%
22:00 -8°C° 0 mm 6 mps 738 mmHg 75%
23:00 -8°C° 0 mm 6 mps 737 mmHg 76%

Day after tomorrow, 7 March, Sunday

Time Temperature Precipitation Wind Pressure Humidity
00:00 -8°C° 0 mm 6 mps 736 mmHg 77%
01:00 -8°C° 0 mm 7 mps 735 mmHg 77%
02:00 -7°C° 0 mm 7 mps 733 mmHg 77%
03:00 -7°C° 0.6 mm 7 mps 732 mmHg 82%
04:00 -7°C° 0.6 mm 7 mps 730 mmHg 87%
05:00 -7°C° 0.6 mm 7 mps 729 mmHg 92%
06:00 -7°C° 0.9 mm 8 mps 728 mmHg 91%
07:00 -7°C° 0.9 mm 8 mps 727 mmHg 90%
08:00 -7°C° 0.9 mm 8 mps 726 mmHg 89%
09:00 -7°C° 0.4 mm 8 mps 727 mmHg 81%
10:00 -8°C° 0.4 mm 8 mps 727 mmHg 73%
11:00 -10°C° 0.4 mm 9 mps 728 mmHg 65%
12:00 -10°C° 0 mm 8 mps 728 mmHg 63%
13:00 -8°C° 0 mm 7 mps 729 mmHg 61%
14:00 -8°C° 0 mm 7 mps 729 mmHg 59%
15:00 -8°C° 0.1 mm 6 mps 728 mmHg 63%
16:00 -8°C° 0.1 mm 6 mps 728 mmHg 67%
17:00 -8°C° 0.1 mm 6 mps 727 mmHg 71%
18:00 -8°C° 0.5 mm 6 mps 727 mmHg 76%
19:00 -8°C° 0.5 mm 6 mps 726 mmHg 81%
20:00 -9°C° 0.5 mm 6 mps 726 mmHg 86%
21:00 -9°C° 0.4 mm 6 mps 726 mmHg 83%
22:00 -10°C° 0.4 mm 5 mps 727 mmHg 79%
23:00 -10°C° 0.4 mm 4 mps 727 mmHg 76%

8 March, Monday

Time Temperature Precipitation Wind Pressure Humidity
00:00 -12°C° 0.1 mm 5 mps 728 mmHg 77%
01:00 -13°C° 0.1 mm 5 mps 729 mmHg 78%
02:00 -14°C° 0.1 mm 6 mps 730 mmHg 78%
03:00 -14°C° 0 mm 5 mps 730 mmHg 81%
04:00 -14°C° 0 mm 5 mps 731 mmHg 84%
05:00 -15°C° 0 mm 4 mps 732 mmHg 87%
06:00 -14°C° 0 mm 4 mps 732 mmHg 86%
07:00 -14°C° 0 mm 4 mps 733 mmHg 85%
08:00 -14°C° 0 mm 4 mps 733 mmHg 84%
09:00 -12°C° 0 mm 4 mps 734 mmHg 81%
10:00 -11°C° 0 mm 4 mps 734 mmHg 78%
11:00 -10°C° 0 mm 4 mps 735 mmHg 75%
12:00 -11°C° 0 mm 5 mps 735 mmHg 75%
13:00 -11°C° 0 mm 5 mps 736 mmHg 76%
14:00 -10°C° 0 mm 5 mps 736 mmHg 76%
15:00 -10°C° 0 mm 4 mps 736 mmHg 78%
16:00 -11°C° 0 mm 4 mps 737 mmHg 80%
17:00 -10°C° 0 mm 3 mps 737 mmHg 82%
18:00 -12°C° 0 mm 3 mps 738 mmHg 85%
19:00 -13°C° 0 mm 3 mps 738 mmHg 87%
20:00 -14°C° 0 mm 3 mps 739 mmHg 90%
21:00 -15°C° 0 mm 3 mps 739 mmHg 90%
22:00 -16°C° 0 mm 3 mps 740 mmHg 91%
23:00 -16°C° 0 mm 3 mps 741 mmHg 91%

9 March, Tuesday

Time Temperature Precipitation Wind Pressure Humidity
00:00 -17°C° 0 mm 3 mps 741 mmHg 92%
01:00 -18°C° 0 mm 3 mps 741 mmHg 93%
02:00 -19°C° 0 mm 3 mps 742 mmHg 93%
03:00 -19°C° 0 mm 3 mps 742 mmHg 94%
04:00 -19°C° 0 mm 2 mps 743 mmHg 94%
05:00 -19°C° 0 mm 2 mps 743 mmHg 94%
06:00 -19°C° 0 mm 2 mps 744 mmHg 93%
07:00 -19°C° 0 mm 2 mps 744 mmHg 91%
08:00 -19°C° 0 mm 2 mps 745 mmHg 89%
09:00 -17°C° 0 mm 2 mps 745 mmHg 85%
10:00 -15°C° 0 mm 2 mps 745 mmHg 80%
11:00 -14°C° 0 mm 2 mps 745 mmHg 76%
12:00 -13°C° 0 mm 2 mps 746 mmHg 74%
13:00 -12°C° 0 mm 2 mps 746 mmHg 72%
14:00 -10°C° 0 mm 2 mps 746 mmHg 71%
15:00 -10°C° 0 mm 2 mps 746 mmHg 75%
16:00 -10°C° 0 mm 2 mps 745 mmHg 78%
17:00 -10°C° 0 mm 2 mps 745 mmHg 82%
18:00 -12°C° 0 mm 2 mps 745 mmHg 84%
19:00 -12°C° 0 mm 2 mps 745 mmHg 86%
20:00 -12°C° 0 mm 2 mps 745 mmHg 87%
21:00 -13°C° 0 mm 3 mps 745 mmHg 85%
22:00 -12°C° 0 mm 3 mps 744 mmHg 83%
23:00 -11°C° 0 mm 4 mps 744 mmHg 81%

10 March, Wednesday

Time Temperature Precipitation Wind Pressure Humidity
00:00 -11°C° 0.2 mm 4 mps 744 mmHg 84%
01:00 -11°C° 0.2 mm 4 mps 743 mmHg 87%
02:00 -11°C° 0.2 mm 4 mps 743 mmHg 91%
03:00 -10°C° 0.2 mm 4 mps 743 mmHg 91%
04:00 -10°C° 0.2 mm 4 mps 743 mmHg 92%
05:00 -10°C° 0.2 mm 4 mps 742 mmHg 92%
06:00 -10°C° 0.3 mm 4 mps 742 mmHg 92%
07:00 -10°C° 0.3 mm 4 mps 742 mmHg 92%
08:00 -9°C° 0.3 mm 4 mps 743 mmHg 92%
09:00 -9°C° 0.2 mm 4 mps 743 mmHg 91%
10:00 -7°C° 0.2 mm 3 mps 743 mmHg 90%
11:00 -6°C° 0.2 mm 3 mps 743 mmHg 88%
12:00 -6°C° 0.3 mm 3 mps 743 mmHg 89%
13:00 -6°C° 0.3 mm 3 mps 743 mmHg 90%
14:00 -6°C° 0.3 mm 3 mps 743 mmHg 90%
15:00 -8°C° 0.4 mm 3 mps 743 mmHg 91%
16:00 -9°C° 0.4 mm 3 mps 743 mmHg 93%
17:00 -10°C° 0.4 mm 3 mps 743 mmHg 94%
18:00 -12°C° 0.2 mm 3 mps 743 mmHg 93%
19:00 -13°C° 0.2 mm 3 mps 743 mmHg 93%
20:00 -15°C° 0.2 mm 4 mps 743 mmHg 93%
21:00 -15°C° 0.2 mm 4 mps 743 mmHg 93%
22:00 -15°C° 0.2 mm 4 mps 743 mmHg 93%
23:00 -16°C° 0.2 mm 4 mps 743 mmHg 93%
Show more

We Need Your Consent

Meteoprog and our Service Providers may store and access personal data such as cookies, device identifiers or other similar technologies on your device and process such data to personalise content and ads, as well as provide social media features and to analyse the traffic.

  • Store and/or access information on your device

    Cookies, device identifiers or other information can be stored or accessed on your device for the purposes indicated above.

  • Personalised ads and content, ad and content measurement, audience insights, and products development

    Ads and content can be personalised based on a profile. More data can be added to better personalise ads and content. Ad and content performance can be measured. Insights about the audience who saw the ads and content can be derived. Such data can be used to develop or improve user’s experience, systems and software.

By clicking ‘I Agree’ you will allow the use of indicated cookies, device identifiers, web beacons or other similar technologies. Your settings can be changed in the browser on your device.

For certain purposes, legitimate interests may be relied on, rather than consent. You can read more about this in our Privacy and Cookie Policy.